Location: Houston
(29.7631°N, 95.3631°W)
Time: 11:51:27
(UTC-05:00)

UNISAT 6 - Pass Details

Date: 24 September 2021
Orbit: 606 x 687 km, 97.7° (Epoch: 27 October)

Event Time Altitude Azimuth Distance (km) Brightness Sun altitude
Rises 21:03:53 0° 356° (N) 3,057 ? -24.3°
Reaches altitude 10° 21:06:26 10° 343° (NNW) 2,135 ? -24.8°
Maximum altitude 21:10:15 25° 289° (WNW) 1,351 ? -25.6°
Drops below altitude 10° 21:14:02 10° 233° (SW) 2,104 ? -26.4°
Sets 21:16:33 0° 221° (SW) 3,003 ? -26.9°
